This is the latest recevied weather packets stored in our database for station/object KD0KHX-10. If no packets are shown the sender has not sent any weather packets the latest 1 day(s).
| Time | Temp. | Humidity | Pressure | Rain* | Wind** | Luminosity | Snow |
|---|---|---|---|---|---|---|---|
| 1778040303 | 3.89° C | 92% | 1010.3 hPa | 0 mm | 1.79 m/s, 88° | - | - |
| 1778040003 | 3.89° C | 92% | 1010.1 hPa | 0 mm | 2.24 m/s, 92° | - | - |
| 1778039703 | 3.89° C | 92% | 1010 hPa | 0 mm | 2.68 m/s, 82° | - | - |
| 1778039403 | 3.89° C | 92% | 1010.2 hPa | 0 mm | 3.13 m/s, 63° | - | - |
| 1778039103 | 3.89° C | 92% | 1010.3 hPa | 0 mm | 4.02 m/s, 55° | - | - |
| 1778039072 | 3.89° C | 92% | 1010.3 hPa | 0 mm | 4.02 m/s, 54° | - | - |
| 1778038773 | 4.44° C | 92% | 1010.3 hPa | 0 mm | 3.58 m/s, 53° | - | - |
| 1778038203 | 4.44° C | 92% | 1010.2 hPa | 0 mm | 4.02 m/s, 54° | - | - |
| 1778037903 | 4.44° C | 91% | 1010.3 hPa | 0 mm | 3.58 m/s, 53° | - | - |
| 1778037603 | 5° C | 92% | 1010.2 hPa | 0 mm | 2.24 m/s, 51° | - | - |
| 1778037438 | 5° C | 92% | 1010 hPa | 0 mm | 2.24 m/s, 47° | - | - |
| 1778037003 | 5° C | 92% | 1009.8 hPa | 0 mm | 3.13 m/s, 36° | - | - |
| 1778036973 | 5° C | 92% | 1009.8 hPa | 0 mm | 3.13 m/s, 36° | - | - |
| 1778036541 | 5.56° C | 92% | 1009.5 hPa | 0 mm | 2.68 m/s, 33° | - | - |
| 1778036238 | 5.56° C | 92% | 1009.5 hPa | 0 mm | 2.24 m/s, 26° | - | - |
| 1778035803 | 5.56° C | 92% | 1009.3 hPa | 0 mm | 2.24 m/s, 39° | - | - |
| 1778035503 | 5.56° C | 92% | 1009.4 hPa | 0 mm | 1.34 m/s, 89° | - | - |
| 1778035203 | 5.56° C | 92% | 1009.3 hPa | 0 mm | 0.89 m/s, 138° | - | - |
| 1778034903 | 5.56° C | 92% | 1009.3 hPa | 0 mm | 0.89 m/s, 138° | - | - |
| 1778034603 | 5.56° C | 92% | 1009.2 hPa | 0 mm | 1.34 m/s, 139° | - | - |
| 1778034573 | 5.56° C | 92% | 1009.2 hPa | 0 mm | 1.34 m/s, 139° | - | - |
| 1778034003 | 5.56° C | 91% | 1009.2 hPa | 0 mm | 0.89 m/s, 139° | - | - |
| 1778033703 | 5.56° C | 91% | 1009.1 hPa | 0 mm | 0.45 m/s, 139° | - | - |
| 1778033403 | 5.56° C | 91% | 1008.8 hPa | 0 mm | 0 m/s | - | - |
| 1778033103 | 5.56° C | 91% | 1008.8 hPa | 0 mm | 0 m/s | - | - |
* Rain latest hour (hover to see other rain measurements)
** Current wind speed in m/s (hover to see current wind gust speed)